| time (UTC) | temp F | wind direction | speed MPH | gust MPH | rain 1hr in | rain 24hr in | rain mn in | humidity % | barometer mb |
| 20260906010034 | 64 | 323 | 6.0 | 12.0 | 0.00 | 0.00 | 0.00 | 56 | 1019.8 |
| 20260906004529 | 64 | 327 | 7.0 | 14.0 | 0.00 | 0.00 | 0.00 | 54 | 1019.7 |
| 20260906003031 | 65 | 343 | 7.0 | 19.0 | 0.00 | 0.00 | 0.00 | 49 | 1019.6 |
| 20260906001529 | 70 | 17 | 5.0 | 11.0 | 0.00 | 0.00 | 0.00 | 44 | 1019.5 |
| 20260906000032 | 71 | 30 | 4.0 | 11.0 | 0.00 | 0.00 | 0.00 | 44 | 1019.4 |
| 20260905234535 | 70 | 30 | 4.0 | 8.0 | 0.00 | 0.00 | 0.00 | 45 | 1019.3 |
| 20260905233034 | 69 | 44 | 4.0 | 11.0 | 0.00 | 0.00 | 0.00 | 48 | 1019.3 |
| 20260905231604 | 67 | 52 | 4.0 | 11.0 | 0.00 | 0.00 | 0.00 | 52 | 1019.6 |
| 20260905230142 | 66 | 47 | 3.0 | 8.0 | 0.00 | 0.00 | 0.00 | 52 | 1019.8 |
| 20260905224530 | 68 | 56 | 5.0 | 14.0 | 0.00 | 0.00 | 0.00 | 50 | 1019.7 |
| 20260905223033 | 68 | 55 | 5.0 | 11.0 | 0.00 | 0.00 | 0.00 | 53 | 1019.8 |
| 20260905220029 | 66 | 48 | 6.0 | 13.0 | 0.00 | 0.00 | 0.00 | 57 | 1020.0 |
| 20260905214532 | 65 | 66 | 5.0 | 12.0 | 0.00 | 0.02 | 0.00 | 59 | 1020.2 |
| 20260905213036 | 64 | 66 | 4.0 | 10.0 | 0.00 | 0.02 | 0.00 | 61 | 1020.4 |
| 20260905211534 | 64 | 49 | 4.0 | 9.0 | 0.00 | 0.02 | 0.00 | 62 | 1020.6 |
| 20260905210033 | 64 | 72 | 2.0 | 6.0 | 0.00 | 0.02 | 0.00 | 62 | 1020.7 |
| 20260905204532 | 64 | 72 | 3.0 | 9.0 | 0.00 | 0.02 | 0.00 | 62 | 1020.7 |
| 20260905203030 | 64 | 50 | 3.0 | 9.0 | 0.00 | 0.02 | 0.00 | 61 | 1020.7 |
| 20260905201607 | 65 | 50 | 3.0 | 9.0 | 0.00 | 0.02 | 0.00 | 60 | 1020.8 |
| 20260905200033 | 66 | 47 | 3.0 | 7.0 | 0.00 | 0.02 | 0.00 | 57 | 1020.8 |
| 20260905194532 | 68 | 59 | 4.0 | 10.0 | 0.00 | 0.02 | 0.00 | 55 | 1020.9 |
| 20260905193030 | 68 | 61 | 4.0 | 8.0 | 0.00 | 0.02 | 0.00 | 58 | 1020.9 |
| 20260905191533 | 67 | 53 | 4.0 | 10.0 | 0.00 | 0.02 | 0.00 | 61 | 1021.0 |
| 20260905190035 | 66 | 64 | 4.0 | 9.0 | 0.00 | 0.02 | 0.00 | 64 | 1021.2 |
| 20260905184535 | 65 | 62 | 4.0 | 11.0 | 0.00 | 0.02 | 0.00 | 67 | 1021.4 |
| 20260905183034 | 62 | 64 | 4.0 | 10.0 | 0.00 | 0.02 | 0.00 | 71 | 1021.4 |
| 20260905181652 | 60 | 55 | 3.0 | 7.0 | 0.00 | 0.02 | 0.00 | 72 | 1021.5 |
| 20260905180032 | 60 | 83 | 1.0 | 5.0 | 0.00 | 0.02 | 0.00 | 71 | 1021.6 |
| 20260905174529 | 61 | 28 | 1.0 | 4.0 | 0.00 | 0.02 | 0.00 | 71 | 1021.5 |
| 20260905173031 | 60 | 46 | 1.0 | 5.0 | 0.00 | 0.02 | 0.00 | 74 | 1021.6 |
| 20260905171534 | 60 | 30 | 2.0 | 6.0 | 0.00 | 0.02 | 0.00 | 73 | 1021.5 |
| 20260905170035 | 61 | 42 | 2.0 | 5.0 | 0.00 | 0.02 | 0.00 | 76 | 1021.4 |
| 20260905163147 | 55 | 218 | 0.0 | 2.0 | 0.00 | 0.02 | 0.00 | 84 | 1021.4 |
| 20260905154604 | 53 | 225 | 0.0 | 0.0 | 0.00 | 0.02 | 0.00 | 87 | 1021.4 |
| 20260905151530 | 50 | 225 | 0.0 | 1.0 | 0.00 | 0.02 | 0.00 | 90 | 1021.3 |
| 20260905150031 | 50 | 225 | 0.0 | 3.0 | 0.00 | 0.02 | 0.00 | 90 | 1021.2 |
| 20260905143031 | 48 | 202 | 2.0 | 3.0 | 0.00 | 0.02 | 0.00 | 91 | 1021.1 |
| 20260905141533 | 47 | 221 | 2.0 | 4.0 | 0.00 | 0.02 | 0.00 | 91 | 1021.0 |
| 20260905140143 | 46 | 225 | 1.0 | 4.0 | 0.00 | 0.02 | 0.00 | 92 | 1020.9 |
| 20260905133032 | 44 | 225 | 0.0 | 2.0 | 0.00 | 0.02 | 0.00 | 90 | 1020.5 |
| 20260905130031 | 45 | 225 | 0.0 | 1.0 | 0.00 | 0.02 | 0.00 | 89 | 1020.4 |
| 20260905124532 | 46 | 225 | 0.0 | 1.0 | 0.00 | 0.02 | 0.00 | 89 | 1020.3 |
| 20260905123035 | 46 | 225 | 0.0 | 1.0 | 0.00 | 0.02 | 0.00 | 88 | 1020.4 |
| 20260905120034 | 47 | 217 | 2.0 | 3.0 | 0.00 | 0.02 | 0.00 | 88 | 1020.4 |
| 20260905114532 | 47 | 169 | 2.0 | 3.0 | 0.00 | 0.02 | 0.00 | 87 | 1020.4 |
| 20260905113029 | 47 | 172 | 2.0 | 3.0 | 0.00 | 0.02 | 0.00 | 86 | 1020.4 |
| 20260905111532 | 48 | 180 | 1.0 | 3.0 | 0.00 | 0.02 | 0.00 | 86 | 1020.4 |
| 20260905110034 | 49 | 162 | 1.0 | 3.0 | 0.00 | 0.02 | 0.00 | 86 | 1020.4 |
| 20260905104535 | 49 | 163 | 0.0 | 3.0 | 0.00 | 0.02 | 0.00 | 86 | 1020.3 |
| 20260905103031 | 49 | 82 | 0.0 | 0.0 | 0.00 | 0.02 | 0.00 | 85 | 1020.3 |
| 20260905101648 | 50 | 338 | 0.0 | 2.0 | 0.00 | 0.02 | 0.00 | 85 | 1020.4 |
| 20260905100036 | 50 | 270 | 0.0 | 1.0 | 0.00 | 0.02 | 0.00 | 85 | 1020.4 |
| 20260905094530 | 50 | 266 | 2.0 | 4.0 | 0.00 | 0.02 | 0.00 | 85 | 1020.4 |
| 20260905093107 | 50 | 265 | 3.0 | 4.0 | 0.00 | 0.02 | 0.00 | 86 | 1020.3 |
| 20260905091535 | 50 | 270 | 1.0 | 3.0 | 0.00 | 0.02 | 0.00 | 86 | 1020.2 |
| 20260905084530 | 50 | 255 | 2.0 | 5.0 | 0.00 | 0.02 | 0.00 | 87 | 1020.2 |
| 20260905081607 | 48 | 270 | 1.0 | 4.0 | 0.00 | 0.02 | 0.00 | 87 | 1020.1 |
| 20260905080036 | 49 | 238 | 1.0 | 3.0 | 0.00 | 0.02 | 0.00 | 86 | 1020.0 |
| 20260905074536 | 49 | 202 | 2.0 | 3.0 | 0.00 | 0.02 | 0.00 | 86 | 1019.8 |
| 20260905073108 | 50 | 215 | 1.0 | 3.0 | 0.00 | 0.02 | 0.00 | 86 | 1019.7 |
| 20260905070142 | 49 | 212 | 3.0 | 5.0 | 0.00 | 0.02 | 0.00 | 84 | 1019.4 |
| 20260905064534 | 50 | 237 | 2.0 | 3.0 | 0.00 | 0.02 | 0.02 | 83 | 1019.3 |
| 20260905063029 | 50 | 264 | 2.0 | 4.0 | 0.00 | 0.02 | 0.02 | 82 | 1019.3 |
| 20260905060037 | 52 | 247 | 3.0 | 4.0 | 0.00 | 0.02 | 0.02 | 79 | 1019.3 |
| 20260905054533 | 53 | 268 | 3.0 | 4.0 | 0.00 | 0.02 | 0.02 | 78 | 1019.3 |
| 20260905053031 | 53 | 256 | 2.0 | 5.0 | 0.00 | 0.02 | 0.02 | 78 | 1019.3 |
| 20260905051530 | 53 | 245 | 3.0 | 4.0 | 0.00 | 0.02 | 0.02 | 79 | 1019.2 |
| 20260905050031 | 53 | 279 | 2.0 | 4.0 | 0.00 | 0.02 | 0.02 | 80 | 1019.2 |
| 20260905044535 | 52 | 283 | 1.0 | 3.0 | 0.00 | 0.02 | 0.02 | 80 | 1019.2 |
| 20260905040031 | 52 | 337 | 0.0 | 1.0 | 0.00 | 0.02 | 0.02 | 77 | 1019.1 |
| 20260905034532 | 52 | 337 | 1.0 | 3.0 | 0.00 | 0.02 | 0.02 | 75 | 1019.0 |
| 20260905033031 | 54 | 337 | 2.0 | 5.0 | 0.00 | 0.02 | 0.02 | 75 | 1018.8 |
| 20260905031535 | 54 | 341 | 2.0 | 5.0 | 0.00 | 0.02 | 0.02 | 74 | 1018.6 |
| 20260905030105 | 55 | 337 | 2.0 | 6.0 | 0.00 | 0.02 | 0.02 | 74 | 1018.5 |
| 20260905024531 | 55 | 353 | 3.0 | 7.0 | 0.00 | 0.02 | 0.02 | 76 | 1018.5 |
| 20260905023037 | 55 | 48 | 3.0 | 8.0 | 0.00 | 0.02 | 0.02 | 76 | 1018.6 |
| 20260905021611 | 55 | 56 | 3.0 | 5.0 | 0.00 | 0.02 | 0.02 | 74 | 1018.4 |
| 20260905020037 | 56 | 51 | 3.0 | 6.0 | 0.00 | 0.02 | 0.02 | 71 | 1018.2 |
| 20260905013034 | 58 | 19 | 2.0 | 7.0 | 0.00 | 0.02 | 0.02 | 66 | 1017.9 |
| 20260905011531 | 58 | 24 | 4.0 | 8.0 | 0.00 | 0.02 | 0.02 | 62 | 1017.7 |